Location: Notre Dame Regional High School Observatory
(37.3056°N, 89.6097°W)
Time: 05:44:13
(UTC-05:00)

Okean-O - Visible Passes

Search period start: 23 May 2017 00:00
Search period end: 02 June 2017 00:00
Orbit: 640 x 641 km, 98.2° (Epoch: 22 May)

Date Brightness Start Highest point End Pass type
(mag) Time Alt. Az. Time Alt. Az. Time Alt. Az.
25 May 5.5 04:32:04 10° ENE 04:33:50 12° E 04:35:38 10° ESE visible
26 May 5.0 04:54:06 10° NE 04:57:36 22° E 05:01:03 10° SSE visible
29 May 5.6 04:30:11 10° ENE 04:31:34 11° E 04:32:57 10° ESE visible
30 May 5.1 04:51:58 10° NE 04:55:19 21° E 04:58:40 10° SE visible
